Regional Weather Roundup
Issued by NWS Little Rock, AR

Home | Current Version | Previous Version | Graphics & Text | Print | Product List | Glossary On
Versions: 1 2 3 4 5 6 7 8 9 10 11 12 13 14 15 16 17 18 19 20 21 22 23 24 25 26 27 28 29 30 31
000
ASUS44 KLZK 210205
RWRLZK

WEATHER ROUNDUP FOR ARKANSAS
NATIONAL WEATHER SERVICE LITTLE ROCK AR
800 PM CST MON FEB 20 2017

NOTE: "FAIR" INDICATES FEW OR NO CLOUDS BELOW 12,000 FEET WITH NO
SIGNIFICANT WEATHER AND/OR OBSTRUCTIONS TO VISIBILITY.

ARZ001-003-010-029-210300-
NORTHWEST ARKANSAS

CITY           SKY/WX    TMP DP  RH WIND       PRES   REMARKS
FAYETTEVILLE   CLOUDY    57  57 100 W3        29.94R
FORT SMITH     LGT RAIN  60  58  92 W9        29.94R
HARRISON       CLOUDY    62  55  77 W6        29.93R
BENTONVILLE    CLOUDY    59  54  82 W6        29.95S
ROGERS         CLOUDY    58  55  90 W3        29.94S
SILOAM SPGS    CLOUDY    57  54  88 SE3       29.93F
HIGHFILL       LGT RAIN  58  56  93 W6        29.94S
SPRINGDALE     CLOUDY    59  59 100 W7        29.96R
$$

ARZ004-005-016-210300-
NORTH CENTRAL ARKANSAS

CITY           SKY/WX    TMP DP  RH WIND       PRES   REMARKS
BATESVILLE     CLOUDY    63  61  94 NE5       29.92F
FLIPPIN        CLOUDY    64  57  77 CALM      29.89S
MTN HOME       LGT RAIN  62  61  96 CALM      29.90S
$$

ARZ040-041-210300-
WEST CENTRAL ARKANSAS

CITY           SKY/WX    TMP DP  RH WIND       PRES   REMARKS
MENA           CLOUDY    59  59 100 CALM      29.96R
MOUNT IDA      RAIN      59  58  96 CALM      29.93R
$$

ARZ009-017-025-026-028-210300-
NORTHEAST ARKANSAS

CITY           SKY/WX    TMP DP  RH WIND       PRES   REMARKS
CORNING        FAIR      63  55  77 SE8       29.93F
JONESBORO      PTCLDY    63  52  67 E6        29.91F
NEWPORT        CLOUDY    66  57  72 MISG      29.90
WALNUT RIDGE   PTCLDY    64  52  63 SE10      29.91F
BLYTHEVILLE    PTCLDY    69  55  60 SE10      29.95F
$$

ARZ022-023-033-042-044-210300-
CENTRAL ARKANSAS

CITY           SKY/WX    TMP DP  RH WIND       PRES   REMARKS
LITTLE ROCK    RAIN      64  64 100 SW6       29.93R FOG
N LITTLE ROCK    N/A     64  62  94 CALM      29.93R
JACKSONVILLE   LGT RAIN  64  64 100 S5        29.91S FOG
SEARCY         CLOUDY    66  62  87 E3        29.91F
HOT SPRINGS    LGT RAIN  61  60  97 CALM      29.97R
RUSSELLVILLE   LGT RAIN  62  59  90 CALM      29.93R
CLINTON        LGT RAIN  64  63  94 CALM      29.91R
$$

ARZ036-210300-
EAST ARKANSAS

CITY           SKY/WX    TMP DP  RH WIND       PRES   REMARKS
WEST MEMPHIS   CLOUDY    69  54  58 SE10      29.91F
$$

ARZ050-053-066-070-073-210300-
SOUTHWEST ARKANSAS

CITY           SKY/WX    TMP DP  RH WIND       PRES   REMARKS
ARKADELPHIA    RAIN      60  59  96 CALM      29.97R
CAMDEN         HVY RAIN  59  55  88 W3        29.96F
TEXARKANA      LGT RAIN  58  58 100 E3        29.93F
EL DORADO      LGT RAIN  59  58  96 NW6       29.95F
DE QUEEN       LGT RAIN  59  59 100 E6        29.92F
$$

ARZ056-057-069-210300-
SOUTHEAST ARKANSAS

CITY           SKY/WX    TMP DP  RH WIND       PRES   REMARKS
PINE BLUFF     RAIN      63  62  97 SW8       29.95R FOG
STUTTGART      CLOUDY    70  55  60 E5        29.90R
MONTICELLO     HVY RAIN  64  62  93 W16       29.94R FOG

$$






USA.gov is the U.S. government's official web portal to all federal, state and local government web resources and services.